Back to catalog

OPS 4682 DEB

AlivePO
NORAD 49111·DEBRIS·🇺🇸 United States

Launched Apr 3, 1965 from Vandenberg Space Force Base

Loading…

Next Passes (next 24 hours)

TLE

FreshSource: Space-Track

Epoch: Sep 13, 2026, 02:27 UTC

1 49111U 65027FU  26256.10268179  .00000006  00000-0 -43818-5 0  9997
2 49111  90.2572  10.3012 0025303  35.7648 324.5159 12.93069565498068

Track OPS 4682 DEB in real time with AllMySat

Download on the App Store